STARLINK-36745, 68257

Orbit data source: Space-Track

STARLINK-36745, 68257 is a payload satellite owned by SpaceX/Seattle (US) in LEO that was launched on Tue, 17 Mar 2026 UTC via an FALCON 9 launch vehicle from the Air Force Eastern Test Range (AFETR). Payload-class satellites include a variety of spacecraft equipped with specific instruments for various scientific and technological missions. These include communications satellites like Starlink; space stations such as the ISS; scientific satellites like the Hubble; Earth observation satellites from companies like Planet Labs, Umbra, and HawkEye 360; GPS; miniature CubeSats for education and research; and military/defense satellites.

Loading next visibility...
Identifier
68257, 2026-054AB
Orbit
LEO
Country
Flag of USUS
Related business
Manufacturer
SpaceX/Seattle
Mission
Operational spacecraft
Bus & Motor
STARLINK V2MO, Unknown motor
Mass
575 kg wet, ~530 kg dry
Launch date (UTC)
2026-03-17 (2 months ago)
Launch vehicle
FALCON 9
Launch site
Air Force Eastern Test Range (AFETR)
Object type
Payload
Rocket body
Debris
Shape & HBR
Unknown shape, 17.7 m
Radar Cross Section
RCS unknown

Expand to show TLE details & history
Last TLE update: 7 hours ago

TLE from 7 hours ago
0 STARLINK-36745
1 68257U 26054AB  26145.43947830  .00027775  00000-0  82976-3 0  9994
2 68257  53.1594 293.8411 0001120 118.6107 241.5008 15.34414146 10838
Epoch: 2026-05-25T10:32Z
TLE epoch observation values (Epoch: 2026-05-25T10:32:50.925Z)
Latitude
-0.00003°
Longitude
-107.39836°
Altitude
463.928 km
Speed
7.636 km/s
True Right ascension
19h 35m 21s
True Declination
0° 00' 00"
Sunlit
Object was in full shadow at epoch
Visualization orbit readout
Latitude
Unknown
Longitude
Unknown
Altitude
Unknown
Speed
Unknown
Apparent Right ascension
Unknown
Apparent Declination
Unknown
Sunlit
N/A
Visualization observer readout
Local Sidereal Time
03:04:18
Azimuth
Unknown
Elevation
Unknown
Doppler factor
Unknown
Orbital elements
Apogee altitude
463.684 km
Perigee altitude
462.152 km
Semi-major axis
6,841.055 km
Eccentricity
0.00011
Inclination
53.1594°
RAAN
293.8411°
Arg. of periapsis
118.6107°
True anomaly
241.48952°
Mean anomaly
241.5008°
Eccentric anomaly
241.49516°
Mean motion
3.83582 °/min
Orbital period
93.85 mins
BSTAR
0.00082976
Loading maneuver chart data...
Computing Atmospheric mass density...
Loading historical data...
Loading historical data...
Loading historical data...
Loading historical data...
Loading historical data...
Loading historical data...
Loading historical data...

Documentation

Showing up to 5 results
|